Location: Unspecified
(0.0000°N, 0.0000°E)
Time: 14:44:52
(UTC+00:00)

Vanguard 1 - Visible Passes

Search period start: 28 August 2015 00:00
Search period end: 07 September 2015 00:00
Orbit: 649 x 3835 km, 34.2° (Epoch: 26 August)

Date Brightness Start Highest point End Pass type
(mag) Time Alt. Az. Time Alt. Az. Time Alt. Az.
28 Aug 13.4 01:18:33 17° NNE 01:22:11 19° NNE 01:35:11 10° ENE visible
28 Aug 13.1 03:32:12 10° NW 03:48:55 58° NE 04:12:12 10° ESE visible
28 Aug 11.6 18:24:43 10° W 18:28:09 20° NNW 18:31:26 10° NNE visible
29 Aug 13.3 01:39:48 23° N 01:44:23 26° NE 02:00:44 10° E visible
29 Aug 12.9 03:53:12 10° NW 04:10:46 72° NE 04:34:39 10° ESE visible
29 Aug 12.2 18:48:45 10° NW 18:49:32 10° NNW 18:50:07 10° NNW visible
30 Aug 13.0 02:01:05 29° N 02:06:19 35° NE 02:25:19 10° E visible
30 Aug 12.8 04:14:25 10° NW 04:32:37 86° NE 04:56:41 10° SE visible
31 Aug 12.8 02:22:22 35° N 02:28:04 45° NE 02:49:04 10° ESE visible
31 Aug 12.8 04:35:52 10° WNW 04:54:34 79° SW 05:18:26 10° SE visible
01 Sep 13.7 00:30:47 14° ENE 00:30:47 14° ENE 00:34:20 10° ENE visible
01 Sep 12.6 02:43:37 42° NNW 02:49:42 58° NE 03:12:09 10° ESE visible
01 Sep 12.9 04:57:38 10° WNW 05:16:42 65° SW 05:39:56 10° SE visible
02 Sep 13.5 00:51:58 20° ENE 00:51:58 20° ENE 01:00:04 10° E visible
02 Sep 12.5 03:04:48 47° NNW 03:11:19 72° NE 03:34:43 10° ESE visible
02 Sep 13.1 05:19:46 10° WNW 05:39:02 53° SSW 06:01:17 10° SE visible
03 Sep 13.2 01:13:05 29° ENE 01:13:05 29° ENE 01:24:43 10° E visible
03 Sep 12.4 03:25:54 48° NW 03:33:02 88° NE 03:56:51 10° SE visible
04 Sep 13.0 01:34:04 39° ENE 01:34:04 39° ENE 01:48:30 10° ESE visible
04 Sep 12.4 03:46:53 44° WNW 03:54:55 76° SW 04:18:41 10° SE visible
05 Sep 12.7 01:54:57 51° ENE 01:54:57 51° ENE 02:11:38 10° ESE visible
05 Sep 12.5 04:07:45 36° W 04:17:01 62° SSW 04:40:18 10° SE visible
06 Sep 12.4 02:15:44 64° E 02:15:44 64° E 02:34:13 10° ESE visible
06 Sep 12.7 04:28:31 28° W 04:39:24 51° SSW 05:01:47 10° SE visible
